Regional Weather Roundup
Issued by NWS Cleveland, OH

Home | Current Version | Previous Version | Graphics & Text | Print | Product List | Glossary On
Versions: 1 2 3 4 5 6 7 8 9 10 11 12 13 14 15 16 17 18 19 20 21 22 23 24 25 26 27 28 29 30 31 32 33 34 35 36 37 38 39 40 41 42 43 44 45 46 47 48 49 50
000
ASUS41 KCLE 251010
RWRCLE
OHIO REGIONAL WEATHER ROUNDUP
NATIONAL WEATHER SERVICE WILMINGTON, OH
600 AM EDT THU AUG 25 2016

NOTE: "FAIR" INDICATES FEW OR NO CLOUDS BELOW 12,000 FEET WITH NO
SIGNIFICANT WEATHER AND/OR OBSTRUCTIONS TO VISIBILITY.

OHZ001>008-015>018-024>027-034-035-043-044-251100-
   NORTHWEST OHIO

CITY           SKY/WX    TMP DP  RH WIND       PRES   REMARKS
DEFIANCE       FAIR      69  67  93 S3        30.01S
FINDLAY        FAIR      71  67  87 SW3       30.02S
TOLEDO EXPRESS FAIR      70  70 100 CALM      30.00S
TOLEDO EXEC    FAIR      72  71  97 SW5       30.01S
LIMA           FAIR      72  72 100 SW5       30.04F
$$

OHZ009>014-019>023-028>033-038-089-251100-
   NORTHEAST OHIO

CITY           SKY/WX    TMP DP  RH WIND       PRES   REMARKS
CLE-HOPKINS    MOCLDY    75  71  87 SW6       30.03S
CLE-LAKEFRONT  CLOUDY    76  73  91 W13       29.99R
CUY CO. ARPT   NOT AVBL
LORAIN-ELYRIA  FAIR      72  69  90 W5        30.02S
ASHTABULA      CLOUDY    73  73 100 W10       30.00R
AKRON-CANTON   CLOUDY    74  71  91 W9        30.05S
WOOSTER        CLOUDY    72  71  97 SW6       30.05F
MANSFIELD      FAIR      71  71 100 SW7       30.06S
YOUNGSTOWN     CLOUDY    72  70  93 SW12      30.02R
$$

OHZ042-051>053-060>062-070>072-077>081-251100-
  SOUTHWEST OHIO

CITY           SKY/WX    TMP DP  RH WIND       PRES   REMARKS
CINC-COVINGTON FAIR      75  74  96 SW6       30.08F
CINC-LUNKEN    FAIR      76  74  93 S6        30.07S
HAMILTON       FAIR      74  72  93 CALM      30.07S
DAYTON         CLOUDY    75  73  93 SW8       30.07S
WRIGHT-PAT AFB MOCLDY    76  75  97 SW5       30.06S
DAYTON GENERAL FAIR      76  72  87 SW7       30.06S
WILMINGTON     FAIR      74  72  93 SW7       30.08S
$$

OHZ036-037-039>041-045>050-054>059-063>069-073>076-082>088-251100-
  CENTRAL AND SOUTHEAST OHIO

CITY           SKY/WX    TMP DP  RH WIND       PRES   REMARKS
COLUMBUS       CLOUDY    72  71  97 S3        30.06F
OSU AIRPORT    MOCLDY    73  72  96 S5        30.06F
BOLTON FIELD   MOCLDY    71  71  99 CALM      30.07F
RICKENBACK AFB MOCLDY    71  71 100 CALM      30.06S
NEWARK         CLOUDY    74  72  93 CALM      30.06S
MARION         FAIR      72  69  90 SW5       30.06S
LANCASTER      FAIR      72  71  97 CALM      30.07F
ZANESVILLE     FAIR      72  71  97 S3        30.07S
NEW PHILLY     CLOUDY    76  70  82 SW6       30.06S
$$




USA.gov is the U.S. government's official web portal to all federal, state and local government web resources and services.